FENGYUN 1C DEB, 41006

Orbit data source: Space-Track

FENGYUN 1C DEB, 41006 is space debris in SSO originally from a launch on Mon, 10 May 1999 UTC launched from the Taiyaun Space Center, China (TSC). Fengyun 1C debris stems from the Chinese weather satellite Fengyun-1C, which was intentionally destroyed by a Chinese anti-satellite missile in 2007. This event dramatically increased the amount of space debris, with thousands of trackable fragments posing hazards to satellites and human spaceflight. The Fengyun 1C debris cloud has become a focal point in discussions about space sustainability and the need for international regulations to prevent the creation of new debris.

Loading next visibility...
Identifier
41006, 1999-025EXL
Orbit
SSO
Country
Flag of CNCN / PRC
Related business
Manufacturer
Unknown
Mission
Spacecraft
Bus & Motor
Unknown
Mass
Unknown
Launch date (UTC)
1999-05-10 (27 years ago)
Launch vehicle
Unknown
Launch site
Taiyaun Space Center, China (TSC)
Object type
Payload
Rocket body
Debris
Shape & HBR
Unknown shape, 0.1 m
Radar Cross Section
Small (<0.1 m²)

Expand to show TLE details & history
Last TLE update: 6 days ago

TLE from 6 days ago
0 FENGYUN 1C DEB
1 41006U 99025EXL 26167.55754892  .00001697  00000-0  13367-2 0  9998
2 41006 102.3659 102.2361 0180978 289.3370  68.8285 13.86596548600636
Epoch: 2026-06-16T13:22Z
TLE epoch observation values (Epoch: 2026-06-16T13:22:52.226Z)
Latitude
-0.00004°
Longitude
-3.30937°
Altitude
897.574 km
Speed
7.426 km/s
True Right ascension
06h 48m 56s
True Declination
0° 00' 00"
Sunlit
Object was in daylight at epoch
Visualization orbit readout
Latitude
Unknown
Longitude
Unknown
Altitude
Unknown
Speed
Unknown
Apparent Right ascension
Unknown
Apparent Declination
Unknown
Sunlit
N/A
Visualization observer readout
Local Sidereal Time
23:19:27
Azimuth
Unknown
Elevation
Unknown
Doppler factor
Unknown
Orbital elements
Apogee altitude
1,070.397 km
Perigee altitude
805.586 km
Semi-major axis
7,316.128 km
Eccentricity
0.0181
Inclination
102.3659°
RAAN
102.2361°
Arg. of periapsis
289.337°
True anomaly
70.77793°
Mean anomaly
68.8285°
Eccentric anomaly
69.80166°
Mean motion
3.46834 °/min
Orbital period
103.8 mins
BSTAR
0.0013367
Loading maneuver chart data...
Computing Atmospheric mass density...

Documentation

Showing up to 5 results
|